Year,Month,Day,Hour,Minute,Value (Times are PST for temperature in C)
2020,04,16,00,00,12.90
2020,04,16,00,01,12.90
2020,04,16,00,02,12.90
2020,04,16,00,03,12.80
2020,04,16,00,04,12.70
2020,04,16,00,05,12.70
2020,04,16,00,06,12.60
2020,04,16,00,07,12.60
2020,04,16,00,08,12.50
2020,04,16,00,09,12.50
2020,04,16,00,10,12.40
2020,04,16,00,11,12.30
2020,04,16,00,12,12.20
2020,04,16,00,13,12.10
2020,04,16,00,14,12.00
2020,04,16,00,15,11.90
2020,04,16,00,16,11.80
2020,04,16,00,17,11.70
2020,04,16,00,18,11.60
2020,04,16,00,19,11.50
2020,04,16,00,20,11.50
2020,04,16,00,21,11.50
2020,04,16,00,22,11.40
2020,04,16,00,23,11.40
2020,04,16,00,24,11.50
2020,04,16,00,25,11.50
2020,04,16,00,26,11.50
2020,04,16,00,27,11.40
2020,04,16,00,28,11.40
2020,04,16,00,29,11.40
2020,04,16,00,30,11.30
2020,04,16,00,31,11.20
2020,04,16,00,32,11.20
2020,04,16,00,33,11.10
2020,04,16,00,34,11.10
2020,04,16,00,35,11.00
2020,04,16,00,36,10.90
2020,04,16,00,37,10.80
2020,04,16,00,38,10.70
2020,04,16,00,39,10.60
2020,04,16,00,40,10.60
2020,04,16,00,41,10.60
2020,04,16,00,42,10.70
2020,04,16,00,43,10.80
2020,04,16,00,44,10.80
2020,04,16,00,45,10.80
2020,04,16,00,46,10.80
2020,04,16,00,47,10.80
2020,04,16,00,48,10.80
2020,04,16,00,49,10.80
2020,04,16,00,50,10.90
2020,04,16,00,51,11.00
2020,04,16,00,52,11.10
2020,04,16,00,53,11.10
2020,04,16,00,54,11.20
2020,04,16,00,55,11.30
2020,04,16,00,56,11.40
2020,04,16,00,57,11.50
2020,04,16,00,58,11.60
2020,04,16,00,59,11.70
2020,04,16,01,00,11.80
2020,04,16,01,01,11.80
2020,04,16,01,02,11.80
2020,04,16,01,03,11.80
2020,04,16,01,04,11.80
2020,04,16,01,05,11.80
2020,04,16,01,06,11.80
2020,04,16,01,07,11.90
2020,04,16,01,08,12.00
2020,04,16,01,09,12.00
2020,04,16,01,10,12.10
2020,04,16,01,11,12.20
2020,04,16,01,12,12.20
2020,04,16,01,13,12.30
2020,04,16,01,14,12.30
2020,04,16,01,15,12.30
2020,04,16,01,16,12.30
2020,04,16,01,17,12.30
2020,04,16,01,18,12.30
2020,04,16,01,19,12.20
2020,04,16,01,20,12.10
2020,04,16,01,21,11.80
2020,04,16,01,22,11.60
2020,04,16,01,23,11.20
2020,04,16,01,24,10.90
2020,04,16,01,25,10.70
2020,04,16,01,26,10.40
2020,04,16,01,27,10.20
2020,04,16,01,28,9.90
2020,04,16,01,29,9.80
2020,04,16,01,30,9.70
2020,04,16,01,31,9.70
2020,04,16,01,32,9.70
2020,04,16,01,33,9.70
2020,04,16,01,34,9.70
2020,04,16,01,35,9.80
2020,04,16,01,36,9.80
2020,04,16,01,37,9.80
2020,04,16,01,38,9.90
2020,04,16,01,39,9.90
2020,04,16,01,40,10.00
2020,04,16,01,41,10.10
2020,04,16,01,42,10.20
2020,04,16,01,43,10.30
2020,04,16,01,44,10.40
2020,04,16,01,45,10.50
2020,04,16,01,46,10.60
2020,04,16,01,47,10.70
2020,04,16,01,48,10.80
2020,04,16,01,49,10.90
2020,04,16,01,50,11.00
2020,04,16,01,51,11.00
2020,04,16,01,52,11.10
2020,04,16,01,53,11.20
2020,04,16,01,54,11.20
2020,04,16,01,55,11.20
2020,04,16,01,56,11.30
2020,04,16,01,57,11.30
2020,04,16,01,58,11.40
2020,04,16,01,59,11.40
2020,04,16,02,00,11.40
2020,04,16,02,01,11.50
2020,04,16,02,02,11.50
2020,04,16,02,03,11.50
2020,04,16,02,04,11.60
2020,04,16,02,05,11.60
2020,04,16,02,06,11.60
2020,04,16,02,07,11.60
2020,04,16,02,08,11.60
2020,04,16,02,09,11.70
2020,04,16,02,10,11.70
2020,04,16,02,11,11.70
2020,04,16,02,12,11.70
2020,04,16,02,13,11.70
2020,04,16,02,14,11.70
2020,04,16,02,15,11.60
2020,04,16,02,16,11.60
2020,04,16,02,17,11.60
2020,04,16,02,18,11.50
2020,04,16,02,19,11.50
2020,04,16,02,20,11.40
2020,04,16,02,21,11.40
2020,04,16,02,22,11.40
2020,04,16,02,23,11.30
2020,04,16,02,24,11.30
2020,04,16,02,25,11.30
2020,04,16,02,26,11.30
2020,04,16,02,27,11.30
2020,04,16,02,28,11.30
2020,04,16,02,29,11.30
2020,04,16,02,30,11.40
2020,04,16,02,31,11.40
2020,04,16,02,32,11.40
2020,04,16,02,33,11.40
2020,04,16,02,34,11.40
2020,04,16,02,35,11.40
2020,04,16,02,36,11.40
2020,04,16,02,37,11.30
2020,04,16,02,38,11.30
2020,04,16,02,39,11.30
2020,04,16,02,40,11.30
2020,04,16,02,41,11.20
2020,04,16,02,42,11.20
2020,04,16,02,43,11.10
2020,04,16,02,44,11.10
2020,04,16,02,45,11.10
2020,04,16,02,46,11.00
2020,04,16,02,47,10.90
2020,04,16,02,48,10.90
2020,04,16,02,49,10.90
2020,04,16,02,50,10.80
2020,04,16,02,51,10.80
2020,04,16,02,52,10.70
2020,04,16,02,53,10.70
2020,04,16,02,54,10.60
2020,04,16,02,55,10.50
2020,04,16,02,56,10.40
2020,04,16,02,57,10.20
2020,04,16,02,58,10.10
2020,04,16,02,59,10.00
2020,04,16,03,00,9.90
2020,04,16,03,01,9.90
2020,04,16,03,02,9.80
2020,04,16,03,03,9.70
2020,04,16,03,04,9.70
2020,04,16,03,05,9.60
2020,04,16,03,06,9.70
2020,04,16,03,07,9.70
2020,04,16,03,08,9.70
2020,04,16,03,09,9.70
2020,04,16,03,10,9.80
2020,04,16,03,11,9.80
2020,04,16,03,12,9.90
2020,04,16,03,13,9.90
2020,04,16,03,14,10.00
2020,04,16,03,15,10.10
2020,04,16,03,16,10.10
2020,04,16,03,17,10.10
2020,04,16,03,18,10.10
2020,04,16,03,19,10.00
2020,04,16,03,20,10.00
2020,04,16,03,21,9.90
2020,04,16,03,22,9.90
2020,04,16,03,23,10.00
2020,04,16,03,24,10.00
2020,04,16,03,25,10.00
2020,04,16,03,26,10.00
2020,04,16,03,27,10.10
2020,04,16,03,28,10.10
2020,04,16,03,29,10.10
2020,04,16,03,30,10.10
2020,04,16,03,31,10.00
2020,04,16,03,32,10.00
2020,04,16,03,33,9.90
2020,04,16,03,34,9.80
2020,04,16,03,35,9.70
2020,04,16,03,36,9.70
2020,04,16,03,37,9.70
2020,04,16,03,38,9.70
2020,04,16,03,39,9.70
2020,04,16,03,40,9.70
2020,04,16,03,41,9.80
2020,04,16,03,42,9.80
2020,04,16,03,43,9.90
2020,04,16,03,44,10.00
2020,04,16,03,45,10.00
2020,04,16,03,46,10.10
2020,04,16,03,47,10.00
2020,04,16,03,48,10.00
2020,04,16,03,49,10.00
2020,04,16,03,50,10.00
2020,04,16,03,51,10.10
2020,04,16,03,52,10.00
2020,04,16,03,53,10.00
2020,04,16,03,54,10.00
2020,04,16,03,55,9.90
2020,04,16,03,56,9.80
2020,04,16,03,57,9.80
2020,04,16,03,58,9.80
2020,04,16,03,59,9.70
2020,04,16,04,00,9.70
2020,04,16,04,01,9.70
2020,04,16,04,02,9.70
2020,04,16,04,03,9.70
2020,04,16,04,04,9.70
2020,04,16,04,05,9.70
2020,04,16,04,06,9.70
2020,04,16,04,07,9.70
2020,04,16,04,08,9.70
2020,04,16,04,09,9.70
2020,04,16,04,10,9.70
2020,04,16,04,11,9.70
2020,04,16,04,12,9.80
2020,04,16,04,13,9.80
2020,04,16,04,14,9.80
2020,04,16,04,15,9.90
2020,04,16,04,16,10.00
2020,04,16,04,17,10.00
2020,04,16,04,18,10.10
2020,04,16,04,19,10.10
2020,04,16,04,20,10.10
2020,04,16,04,21,10.20
2020,04,16,04,22,10.20
2020,04,16,04,23,10.20
2020,04,16,04,24,10.10
2020,04,16,04,25,10.10
2020,04,16,04,26,10.10
2020,04,16,04,27,10.00
2020,04,16,04,28,9.90
2020,04,16,04,29,9.90
2020,04,16,04,30,9.90
2020,04,16,04,31,9.90
2020,04,16,04,32,9.80
2020,04,16,04,33,9.80
2020,04,16,04,34,9.80
2020,04,16,04,35,9.70
2020,04,16,04,36,9.60
2020,04,16,04,37,9.60
2020,04,16,04,38,9.60
2020,04,16,04,39,9.60
2020,04,16,04,40,9.60
2020,04,16,04,41,9.60
2020,04,16,04,42,9.70
2020,04,16,04,43,9.80
2020,04,16,04,44,9.80
2020,04,16,04,45,9.80
2020,04,16,04,46,9.80
2020,04,16,04,47,9.80
2020,04,16,04,48,9.90
2020,04,16,04,49,9.90
2020,04,16,04,50,9.80
2020,04,16,04,51,9.80
2020,04,16,04,52,9.80
2020,04,16,04,53,9.90
2020,04,16,04,54,9.90
2020,04,16,04,55,9.90
2020,04,16,04,56,9.90
2020,04,16,04,57,9.90
2020,04,16,04,58,9.90
2020,04,16,04,59,10.00
2020,04,16,05,00,9.90
2020,04,16,05,01,9.90
2020,04,16,05,02,9.90
2020,04,16,05,03,9.90
2020,04,16,05,04,9.90
2020,04,16,05,05,9.90
2020,04,16,05,06,9.90
2020,04,16,05,07,9.90
2020,04,16,05,08,9.90
2020,04,16,05,09,9.90
2020,04,16,05,10,9.90
2020,04,16,05,11,9.80
2020,04,16,05,12,9.80
2020,04,16,05,13,9.70
2020,04,16,05,14,9.70
2020,04,16,05,15,9.60
2020,04,16,05,16,9.60
2020,04,16,05,17,9.60
2020,04,16,05,18,9.70
2020,04,16,05,19,9.70
2020,04,16,05,20,9.70
2020,04,16,05,21,9.70
2020,04,16,05,22,9.70
2020,04,16,05,23,9.70
2020,04,16,05,24,9.70
2020,04,16,05,25,9.70
2020,04,16,05,26,9.80
2020,04,16,05,27,9.80
2020,04,16,05,28,9.80
2020,04,16,05,29,9.80
2020,04,16,05,30,9.80
2020,04,16,05,31,9.80
2020,04,16,05,32,9.80
2020,04,16,05,33,9.80
2020,04,16,05,34,9.80
2020,04,16,05,35,9.70
2020,04,16,05,36,9.70
2020,04,16,05,37,9.70
2020,04,16,05,38,9.70
2020,04,16,05,39,9.80
2020,04,16,05,40,9.80
2020,04,16,05,41,9.80
2020,04,16,05,42,9.80
2020,04,16,05,43,9.90
2020,04,16,05,44,9.90
2020,04,16,05,45,10.00
2020,04,16,05,46,10.00
2020,04,16,05,47,10.00
2020,04,16,05,48,10.10
2020,04,16,05,49,10.10
2020,04,16,05,50,10.10
2020,04,16,05,51,10.10
2020,04,16,05,52,10.10
2020,04,16,05,53,10.10
2020,04,16,05,54,10.10
2020,04,16,05,55,10.00
2020,04,16,05,56,10.00
2020,04,16,05,57,10.00
2020,04,16,05,58,9.90
2020,04,16,05,59,9.90
2020,04,16,06,00,9.90
2020,04,16,06,01,9.80
2020,04,16,06,02,9.80
2020,04,16,06,03,9.80
2020,04,16,06,04,9.80
2020,04,16,06,05,9.80
2020,04,16,06,06,9.70
2020,04,16,06,07,9.70
2020,04,16,06,08,9.70
2020,04,16,06,09,9.70
2020,04,16,06,10,9.60
2020,04,16,06,11,9.60
2020,04,16,06,12,9.60
2020,04,16,06,13,9.50
2020,04,16,06,14,9.40
2020,04,16,06,15,9.40
2020,04,16,06,16,9.30
2020,04,16,06,17,9.30
2020,04,16,06,18,9.30
2020,04,16,06,19,9.20
2020,04,16,06,20,9.20
2020,04,16,06,21,9.10
2020,04,16,06,22,9.10
2020,04,16,06,23,9.00
2020,04,16,06,24,9.00
2020,04,16,06,25,8.90
2020,04,16,06,26,8.90
2020,04,16,06,27,8.90
2020,04,16,06,28,8.80
2020,04,16,06,29,8.80
2020,04,16,06,30,8.80
2020,04,16,06,31,8.70
2020,04,16,06,32,8.70
2020,04,16,06,33,8.70
2020,04,16,06,34,8.70
2020,04,16,06,35,8.70
2020,04,16,06,36,8.70
2020,04,16,06,37,8.60
2020,04,16,06,38,8.60
2020,04,16,06,39,8.60
2020,04,16,06,40,8.60
2020,04,16,06,41,8.60
2020,04,16,06,42,8.60
2020,04,16,06,43,8.60
2020,04,16,06,44,8.60
2020,04,16,06,45,8.50
2020,04,16,06,46,8.50
2020,04,16,06,47,8.40
2020,04,16,06,48,8.40
2020,04,16,06,49,8.40
2020,04,16,06,50,8.40
2020,04,16,06,51,8.50
2020,04,16,06,52,8.50
2020,04,16,06,53,8.60
2020,04,16,06,54,8.60
2020,04,16,06,55,8.60
2020,04,16,06,56,8.60
2020,04,16,06,57,8.60
2020,04,16,06,58,8.70
2020,04,16,06,59,8.70
2020,04,16,07,00,8.70
2020,04,16,07,01,8.80
2020,04,16,07,02,8.80
2020,04,16,07,03,8.80
2020,04,16,07,04,8.90
2020,04,16,07,05,9.00
2020,04,16,07,06,9.00
2020,04,16,07,07,9.10
2020,04,16,07,08,9.10
2020,04,16,07,09,9.20
2020,04,16,07,10,9.20
2020,04,16,07,11,9.30
2020,04,16,07,12,9.30
2020,04,16,07,13,9.40
2020,04,16,07,14,9.50
2020,04,16,07,15,9.50
2020,04,16,07,16,9.60
2020,04,16,07,17,9.60
2020,04,16,07,18,9.60
2020,04,16,07,19,9.70
2020,04,16,07,20,9.70
2020,04,16,07,21,9.80
2020,04,16,07,22,9.80
2020,04,16,07,23,9.80
2020,04,16,07,24,9.90
2020,04,16,07,25,9.90
2020,04,16,07,26,10.00
2020,04,16,07,27,10.00
2020,04,16,07,28,10.10
2020,04,16,07,29,10.10
2020,04,16,07,30,10.10
2020,04,16,07,31,10.10
2020,04,16,07,32,10.10
2020,04,16,07,33,10.20
2020,04,16,07,34,10.20
2020,04,16,07,35,10.20
2020,04,16,07,36,10.20
2020,04,16,07,37,10.30
2020,04,16,07,38,10.30
2020,04,16,07,39,10.40
2020,04,16,07,40,10.40
2020,04,16,07,41,10.50
2020,04,16,07,42,10.50
2020,04,16,07,43,10.50
2020,04,16,07,44,10.50
2020,04,16,07,45,10.50
2020,04,16,07,46,10.50
2020,04,16,07,47,10.50
2020,04,16,07,48,10.50
2020,04,16,07,49,10.50
2020,04,16,07,50,10.50
2020,04,16,07,51,10.50
2020,04,16,07,52,10.50
2020,04,16,07,53,10.50
2020,04,16,07,54,10.50
2020,04,16,07,55,10.60
2020,04,16,07,56,10.60
2020,04,16,07,57,10.60
2020,04,16,07,58,10.70
2020,04,16,07,59,10.70
2020,04,16,08,00,10.70
2020,04,16,08,01,10.70
2020,04,16,08,02,10.70
2020,04,16,08,03,10.70
2020,04,16,08,04,10.80
2020,04,16,08,05,10.80
2020,04,16,08,06,10.80
2020,04,16,08,07,10.80
2020,04,16,08,08,10.90
2020,04,16,08,09,10.90
2020,04,16,08,10,10.90
2020,04,16,08,11,11.00
2020,04,16,08,12,11.00
2020,04,16,08,13,11.10
2020,04,16,08,14,11.10
2020,04,16,08,15,11.10
2020,04,16,08,16,11.10
2020,04,16,08,17,11.20
2020,04,16,08,18,11.20
2020,04,16,08,19,11.20
2020,04,16,08,20,11.30
2020,04,16,08,21,11.30
2020,04,16,08,22,11.40
2020,04,16,08,23,11.40
2020,04,16,08,24,11.50
2020,04,16,08,25,11.50
2020,04,16,08,26,11.60
2020,04,16,08,27,11.70
2020,04,16,08,28,11.80
2020,04,16,08,29,11.90
2020,04,16,08,30,12.00
2020,04,16,08,31,12.10
2020,04,16,08,32,12.10
2020,04,16,08,33,12.20
2020,04,16,08,34,12.10
2020,04,16,08,35,12.10
2020,04,16,08,36,12.10
2020,04,16,08,37,12.10
2020,04,16,08,38,12.10
2020,04,16,08,39,12.20
2020,04,16,08,40,12.20
2020,04,16,08,41,12.20
2020,04,16,08,42,12.20
2020,04,16,08,43,12.20
2020,04,16,08,44,12.20
2020,04,16,08,45,12.30
2020,04,16,08,46,12.30
2020,04,16,08,47,12.40
2020,04,16,08,48,12.50
2020,04,16,08,49,12.60
2020,04,16,08,50,12.60
2020,04,16,08,51,12.70
2020,04,16,08,52,12.70
2020,04,16,08,53,12.80
2020,04,16,08,54,12.90
2020,04,16,08,55,12.90
2020,04,16,08,56,13.00
2020,04,16,08,57,13.10
2020,04,16,08,58,13.20
2020,04,16,08,59,13.30
2020,04,16,09,00,13.30
2020,04,16,09,01,13.40
2020,04,16,09,02,13.50
2020,04,16,09,03,13.60
2020,04,16,09,04,13.60
2020,04,16,09,05,13.60
2020,04,16,09,06,13.70
2020,04,16,09,07,13.70
2020,04,16,09,08,13.70
2020,04,16,09,09,13.60
2020,04,16,09,10,13.60
2020,04,16,09,11,13.50
2020,04,16,09,12,13.50
2020,04,16,09,13,13.50
2020,04,16,09,14,13.40
2020,04,16,09,15,13.40
2020,04,16,09,16,13.40
2020,04,16,09,17,13.40
2020,04,16,09,18,13.40
2020,04,16,09,19,13.40
2020,04,16,09,20,13.40
2020,04,16,09,21,13.40
2020,04,16,09,22,13.40
2020,04,16,09,23,13.40
2020,04,16,09,24,13.40
2020,04,16,09,25,13.40
2020,04,16,09,26,13.50
2020,04,16,09,27,13.50
2020,04,16,09,28,13.60
2020,04,16,09,29,13.70
2020,04,16,09,30,13.70
2020,04,16,09,31,13.70
2020,04,16,09,32,13.70
2020,04,16,09,33,13.70
2020,04,16,09,34,13.80
2020,04,16,09,35,13.90
2020,04,16,09,36,14.00
2020,04,16,09,37,14.10
2020,04,16,09,38,14.20
2020,04,16,09,39,14.30
2020,04,16,09,40,14.30
2020,04,16,09,41,14.30
2020,04,16,09,42,14.30
2020,04,16,09,43,14.30
2020,04,16,09,44,14.30
2020,04,16,09,45,14.30
2020,04,16,09,46,14.40
2020,04,16,09,47,14.50
2020,04,16,09,48,14.50
2020,04,16,09,49,14.60
2020,04,16,09,50,14.70
2020,04,16,09,51,14.80
2020,04,16,09,52,14.90
2020,04,16,09,53,15.00
2020,04,16,09,54,15.10
2020,04,16,09,55,15.20
2020,04,16,09,56,15.30
2020,04,16,09,57,15.30
2020,04,16,09,58,15.40
2020,04,16,09,59,15.40
2020,04,16,10,00,15.30
2020,04,16,10,01,15.20
2020,04,16,10,02,15.20
2020,04,16,10,03,15.10
2020,04,16,10,04,15.20
2020,04,16,10,05,15.20
2020,04,16,10,06,15.30
2020,04,16,10,07,15.30
2020,04,16,10,08,15.40
2020,04,16,10,09,15.50
2020,04,16,10,10,15.50
2020,04,16,10,11,15.50
2020,04,16,10,12,15.50
2020,04,16,10,13,15.60
2020,04,16,10,14,15.70
2020,04,16,10,15,15.70
2020,04,16,10,16,15.70
2020,04,16,10,17,15.60
2020,04,16,10,18,15.50
2020,04,16,10,19,15.40
2020,04,16,10,20,15.50
2020,04,16,10,21,15.50
2020,04,16,10,22,15.50
2020,04,16,10,23,15.50
2020,04,16,10,24,15.60
2020,04,16,10,25,15.70
2020,04,16,10,26,15.80
2020,04,16,10,27,15.80
2020,04,16,10,28,15.90
2020,04,16,10,29,15.90
2020,04,16,10,30,16.00
2020,04,16,10,31,16.10
2020,04,16,10,32,16.10
2020,04,16,10,33,16.20
2020,04,16,10,34,16.20
2020,04,16,10,35,16.30
2020,04,16,10,36,16.30
2020,04,16,10,37,16.30
2020,04,16,10,38,16.30
2020,04,16,10,39,16.40
2020,04,16,10,40,16.40
2020,04,16,10,41,16.40
2020,04,16,10,42,16.30
2020,04,16,10,43,16.30
2020,04,16,10,44,16.30
2020,04,16,10,45,16.30
2020,04,16,10,46,16.30
2020,04,16,10,47,16.30
2020,04,16,10,48,16.30
2020,04,16,10,49,16.20
2020,04,16,10,50,16.20
2020,04,16,10,51,16.20
2020,04,16,10,52,16.30
2020,04,16,10,53,16.20
2020,04,16,10,54,16.20
2020,04,16,10,55,16.30
2020,04,16,10,56,16.20
2020,04,16,10,57,16.20
2020,04,16,10,58,16.20
2020,04,16,10,59,16.20
2020,04,16,11,00,16.20
2020,04,16,11,01,16.20
2020,04,16,11,02,16.30
2020,04,16,11,03,16.30
2020,04,16,11,04,16.20
2020,04,16,11,05,16.20
2020,04,16,11,06,16.20
2020,04,16,11,07,16.20
2020,04,16,11,08,16.30
2020,04,16,11,09,16.30
2020,04,16,11,10,16.40
2020,04,16,11,11,16.50
2020,04,16,11,12,16.50
2020,04,16,11,13,16.60
2020,04,16,11,14,16.70
2020,04,16,11,15,16.80
2020,04,16,11,16,16.90
2020,04,16,11,17,17.00
2020,04,16,11,18,17.10
2020,04,16,11,19,17.20
2020,04,16,11,20,17.30
2020,04,16,11,21,17.30
2020,04,16,11,22,17.10
2020,04,16,11,23,16.90
2020,04,16,11,24,16.80
2020,04,16,11,25,16.70
2020,04,16,11,26,16.70
2020,04,16,11,27,16.80
2020,04,16,11,28,16.80
2020,04,16,11,29,16.80
2020,04,16,11,30,16.90
2020,04,16,11,31,17.00
2020,04,16,11,32,17.20
2020,04,16,11,33,17.30
2020,04,16,11,34,17.30
2020,04,16,11,35,17.40
2020,04,16,11,36,17.50
2020,04,16,11,37,17.50
2020,04,16,11,38,17.50
2020,04,16,11,39,17.40
2020,04,16,11,40,17.40
2020,04,16,11,41,17.30
2020,04,16,11,42,17.30
2020,04,16,11,43,17.30
2020,04,16,11,44,17.30
2020,04,16,11,45,17.10
2020,04,16,11,46,17.10
2020,04,16,11,47,17.10
2020,04,16,11,48,17.10
2020,04,16,11,49,17.10
2020,04,16,11,50,17.10
2020,04,16,11,51,17.10
2020,04,16,11,52,17.10
2020,04,16,11,53,17.10
2020,04,16,11,54,17.00
2020,04,16,11,55,16.90
2020,04,16,11,56,16.80
2020,04,16,11,57,16.80
2020,04,16,11,58,16.80
2020,04,16,11,59,16.90
2020,04,16,12,00,17.00
2020,04,16,12,01,17.10
2020,04,16,12,02,17.00
2020,04,16,12,03,17.00
2020,04,16,12,04,17.10
2020,04,16,12,05,17.00
2020,04,16,12,06,17.00
2020,04,16,12,07,16.90
2020,04,16,12,08,17.00
2020,04,16,12,09,17.10
2020,04,16,12,10,17.10
2020,04,16,12,11,17.10
2020,04,16,12,12,17.20
2020,04,16,12,13,17.30
2020,04,16,12,14,17.20
2020,04,16,12,15,17.20
2020,04,16,12,16,17.30
2020,04,16,12,17,17.40
2020,04,16,12,18,17.40
2020,04,16,12,19,17.40
2020,04,16,12,20,17.30
2020,04,16,12,21,17.30
2020,04,16,12,22,17.20
2020,04,16,12,23,17.10
2020,04,16,12,24,17.20
2020,04,16,12,25,17.20
2020,04,16,12,26,17.30
2020,04,16,12,27,17.40
2020,04,16,12,28,17.50
2020,04,16,12,29,17.50
2020,04,16,12,30,17.50
2020,04,16,12,31,17.40
2020,04,16,12,32,17.30
2020,04,16,12,33,17.30
2020,04,16,12,34,17.30
2020,04,16,12,35,17.40
2020,04,16,12,36,17.50
2020,04,16,12,37,17.50
2020,04,16,12,38,17.50
2020,04,16,12,39,17.50
2020,04,16,12,40,17.60
2020,04,16,12,41,17.60
2020,04,16,12,42,17.60
2020,04,16,12,43,17.60
2020,04,16,12,44,17.60
2020,04,16,12,45,17.60
2020,04,16,12,46,17.70
2020,04,16,12,47,17.70
2020,04,16,12,48,17.70
2020,04,16,12,49,17.70
2020,04,16,12,50,17.80
2020,04,16,12,51,17.90
2020,04,16,12,52,17.90
2020,04,16,12,53,17.90
2020,04,16,12,54,17.80
2020,04,16,12,55,17.80
2020,04,16,12,56,17.80
2020,04,16,12,57,17.80
2020,04,16,12,58,17.70
2020,04,16,12,59,17.70
2020,04,16,13,00,17.70
2020,04,16,13,01,17.80
2020,04,16,13,02,17.80
2020,04,16,13,03,17.90
2020,04,16,13,04,17.90
2020,04,16,13,05,18.00
2020,04,16,13,06,18.00
2020,04,16,13,07,18.10
2020,04,16,13,08,18.10
2020,04,16,13,09,18.10
2020,04,16,13,10,18.00
2020,04,16,13,11,18.00
2020,04,16,13,12,17.90
2020,04,16,13,13,17.90
2020,04,16,13,14,18.00
2020,04,16,13,15,18.10
2020,04,16,13,16,18.20
2020,04,16,13,17,18.10
2020,04,16,13,18,18.00
2020,04,16,13,19,17.90
2020,04,16,13,20,17.90
2020,04,16,13,21,18.00
2020,04,16,13,22,18.10
2020,04,16,13,23,18.20
2020,04,16,13,24,18.20
2020,04,16,13,25,18.30
2020,04,16,13,26,18.20
2020,04,16,13,27,18.00
2020,04,16,13,28,18.00
2020,04,16,13,29,18.00
2020,04,16,13,30,18.10
2020,04,16,13,31,18.10
2020,04,16,13,32,18.20
2020,04,16,13,33,18.20
2020,04,16,13,34,18.20
2020,04,16,13,35,18.20
2020,04,16,13,36,18.30
2020,04,16,13,37,18.30
2020,04,16,13,38,18.30
2020,04,16,13,39,18.40
2020,04,16,13,40,18.50
2020,04,16,13,41,18.50
2020,04,16,13,42,18.60
2020,04,16,13,43,18.70
2020,04,16,13,44,18.70
2020,04,16,13,45,18.70
2020,04,16,13,46,18.70
2020,04,16,13,47,18.70
2020,04,16,13,48,18.70
2020,04,16,13,49,18.70
2020,04,16,13,50,18.60
2020,04,16,13,51,18.60
2020,04,16,13,52,18.60
2020,04,16,13,53,18.60
2020,04,16,13,54,18.60
2020,04,16,13,55,18.60
2020,04,16,13,56,18.70
2020,04,16,13,57,18.80
2020,04,16,13,58,18.90
2020,04,16,13,59,18.90
2020,04,16,14,00,18.80
2020,04,16,14,01,18.80
2020,04,16,14,02,18.80
2020,04,16,14,03,18.80
2020,04,16,14,04,18.90
2020,04,16,14,05,18.80
2020,04,16,14,06,18.70
2020,04,16,14,07,18.80
2020,04,16,14,08,18.80
2020,04,16,14,09,18.90
2020,04,16,14,10,18.90
2020,04,16,14,11,18.90
2020,04,16,14,12,18.80
2020,04,16,14,13,18.80
2020,04,16,14,14,18.90
2020,04,16,14,15,19.00
2020,04,16,14,16,19.00
2020,04,16,14,17,19.00
2020,04,16,14,18,19.00
2020,04,16,14,19,18.90
2020,04,16,14,20,18.90
2020,04,16,14,21,19.00
2020,04,16,14,22,19.00
2020,04,16,14,23,19.00
2020,04,16,14,24,19.00
2020,04,16,14,25,19.00
2020,04,16,14,26,19.00
2020,04,16,14,27,18.90
2020,04,16,14,28,19.00
2020,04,16,14,29,19.00
2020,04,16,14,30,19.10
2020,04,16,14,31,19.10
2020,04,16,14,32,19.20
2020,04,16,14,33,19.20
2020,04,16,14,34,19.20
2020,04,16,14,35,19.20
2020,04,16,14,36,19.20
2020,04,16,14,37,19.20
2020,04,16,14,38,19.10
2020,04,16,14,39,19.10
2020,04,16,14,40,19.10
2020,04,16,14,41,19.20
2020,04,16,14,42,19.20
2020,04,16,14,43,19.10
2020,04,16,14,44,19.10
2020,04,16,14,45,19.10
2020,04,16,14,46,19.20
2020,04,16,14,47,19.30
2020,04,16,14,48,19.50
2020,04,16,14,49,19.50
2020,04,16,14,50,19.50
2020,04,16,14,51,19.40
2020,04,16,14,52,19.40
2020,04,16,14,53,19.40
2020,04,16,14,54,19.30
2020,04,16,14,55,19.30
2020,04,16,14,56,19.30
2020,04,16,14,57,19.20
2020,04,16,14,58,19.10
2020,04,16,14,59,19.10
2020,04,16,15,00,19.10
2020,04,16,15,01,19.20
2020,04,16,15,02,19.30
2020,04,16,15,03,19.40
2020,04,16,15,04,19.40
2020,04,16,15,05,19.30
2020,04,16,15,06,19.30
2020,04,16,15,07,19.40
2020,04,16,15,08,19.40
2020,04,16,15,09,19.50
2020,04,16,15,10,19.50
2020,04,16,15,11,19.40
2020,04,16,15,12,19.40
2020,04,16,15,13,19.30
2020,04,16,15,14,19.40
2020,04,16,15,15,19.40
2020,04,16,15,16,19.30
2020,04,16,15,17,19.20
2020,04,16,15,18,19.30
2020,04,16,15,19,19.30
2020,04,16,15,20,19.40
2020,04,16,15,21,19.30
2020,04,16,15,22,19.30
2020,04,16,15,23,19.30
2020,04,16,15,24,19.30
2020,04,16,15,25,19.30
2020,04,16,15,26,19.40
2020,04,16,15,27,19.40
2020,04,16,15,28,19.40
2020,04,16,15,29,19.50
2020,04,16,15,30,19.60
2020,04,16,15,31,19.70
2020,04,16,15,32,19.70
2020,04,16,15,33,19.70
2020,04,16,15,34,19.70
2020,04,16,15,35,19.80
2020,04,16,15,36,19.90
2020,04,16,15,37,19.90
2020,04,16,15,38,19.90
2020,04,16,15,39,19.90
2020,04,16,15,40,19.90
2020,04,16,15,41,19.90
2020,04,16,15,42,20.00
2020,04,16,15,43,19.90
2020,04,16,15,44,19.90
2020,04,16,15,45,19.90
2020,04,16,15,46,19.80
2020,04,16,15,47,19.80
2020,04,16,15,48,19.70
2020,04,16,15,49,19.60
2020,04,16,15,50,19.50
2020,04,16,15,51,19.40
2020,04,16,15,52,19.30
2020,04,16,15,53,19.30
2020,04,16,15,54,19.30
2020,04,16,15,55,19.40
2020,04,16,15,56,19.50
2020,04,16,15,57,19.60
2020,04,16,15,58,19.60
2020,04,16,15,59,19.70
2020,04,16,16,00,19.80
2020,04,16,16,01,19.70
2020,04,16,16,02,19.80
2020,04,16,16,03,19.80
2020,04,16,16,04,19.80
2020,04,16,16,05,19.80
2020,04,16,16,06,19.70
2020,04,16,16,07,19.60
2020,04,16,16,08,19.60
2020,04,16,16,09,19.50
2020,04,16,16,10,19.40
2020,04,16,16,11,19.40
2020,04,16,16,12,19.40
2020,04,16,16,13,19.50
2020,04,16,16,14,19.50
2020,04,16,16,15,19.50
2020,04,16,16,16,19.30
2020,04,16,16,17,19.20
2020,04,16,16,18,19.20
2020,04,16,16,19,19.20
2020,04,16,16,20,19.30
2020,04,16,16,21,19.30
2020,04,16,16,22,19.50
2020,04,16,16,23,19.60
2020,04,16,16,24,19.70
2020,04,16,16,25,19.70
2020,04,16,16,26,19.70
2020,04,16,16,27,19.70
2020,04,16,16,28,19.80
2020,04,16,16,29,19.90
2020,04,16,16,30,19.90
2020,04,16,16,31,19.90
2020,04,16,16,32,19.90
2020,04,16,16,33,19.80
2020,04,16,16,34,19.80
2020,04,16,16,35,19.80
2020,04,16,16,36,19.80
2020,04,16,16,37,19.90
2020,04,16,16,38,19.90
2020,04,16,16,39,19.90
2020,04,16,16,40,19.80
2020,04,16,16,41,19.70
2020,04,16,16,42,19.70
2020,04,16,16,43,19.60
2020,04,16,16,44,19.70
2020,04,16,16,45,19.70
2020,04,16,16,46,19.70
2020,04,16,16,47,19.80
2020,04,16,16,48,19.80
2020,04,16,16,49,19.80
2020,04,16,16,50,19.80
2020,04,16,16,51,19.90
2020,04,16,16,52,19.90
2020,04,16,16,53,19.90
2020,04,16,16,54,19.90
2020,04,16,16,55,19.90
2020,04,16,16,56,19.90
2020,04,16,16,57,20.00
2020,04,16,16,58,20.00
2020,04,16,16,59,20.00
2020,04,16,17,00,20.00
2020,04,16,17,01,20.10
2020,04,16,17,02,20.10
2020,04,16,17,03,20.10
2020,04,16,17,04,20.10
2020,04,16,17,05,20.10
2020,04,16,17,06,20.10
2020,04,16,17,07,20.20
2020,04,16,17,08,20.30
2020,04,16,17,09,20.30
2020,04,16,17,10,20.30
2020,04,16,17,11,20.40
2020,04,16,17,12,20.40
2020,04,16,17,13,20.30
2020,04,16,17,14,20.30
2020,04,16,17,15,20.30
2020,04,16,17,16,20.30
2020,04,16,17,17,20.30
2020,04,16,17,18,20.30
2020,04,16,17,19,20.30
2020,04,16,17,20,20.30
2020,04,16,17,21,20.20
2020,04,16,17,22,20.20
2020,04,16,17,23,20.20
2020,04,16,17,24,20.30
2020,04,16,17,25,20.30
2020,04,16,17,26,20.30
2020,04,16,17,27,20.40
2020,04,16,17,28,20.40
2020,04,16,17,29,20.40